Portland, OR

5:48 PM PST on December 15, 2017 (GMT -0800)
Portland International

Weather History for KPDX - June, 2013

Change the Weather History Date:

Friday, June 7, 2013

  Actual Average Record
Temperature  
Mean Temperature 67 °F 62 °F  
Max Temperature 79 °F 72 °F 93 °F (1948)
Min Temperature 54 °F 52 °F 44 °F (1999)
Degree Days  
Heating Degree Days 0 4  
Month to date heating degree days 7 30  
Since 1 June heating degree days 7 30  
Since 1 July heating degree days 3946 4217  
Cooling Degree Days 2 1  
Month to date cooling degree days 14 7  
Year to date cooling degree days 29 24  
Since 1 June cooling degree days 14 7  
Growing Degree Days 16 (Base 50)    
Moisture  
Dew Point 47 °F    
Average Humidity 52    
Maximum Humidity 72    
Minimum Humidity 31    
Precipitation  
Precipitation 0.00 in 0.07 in 1.02 in (1981)
Month to date precipitation T 0.53  
Year to date precipitation 13.15 17.95  
Snow  
Snow 0.00 in - - ()
Month to date snowfall 0.0  
Since 1 June snowfall 0.0  
Since 1 July snowfall 0.0  
Snow Depth 0.00 in    
Sea Level Pressure  
Sea Level Pressure 30.11 in    
Wind  
Wind Speed 4 mph (NNW)    
Max Wind Speed 17 mph    
Max Gust Speed 22 mph    
Visibility 10 miles    
Events      
T = Trace of Precipitation, MM = Missing Value Source: NWS Daily Summary

Daily Weather History Graph

Daily Weather History Graph

Search for Another Location

Airport or City:

Trip Planner

Search our weather history database for the weather conditions in past years. The results will help you decide how hot, cold, wet, or windy it might be!

Date:

Astronomy

Jun. 07, 2013 Rise Set
Actual Time 5:21 AM PDT 8:57 PM PDT
Civil Twilight 4:44 AM PDT 9:34 PM PDT
Nautical Twilight 3:54 AM PDT 10:24 PM PDT
Astronomical Twilight 2:48 AM PDT 11:31 PM PDT
Moon 4:52 AM PDT (6/7) 8:12 PM PDT (6/7)
Length of Visible Light 16h 50m
Length of Day
15h 35m
Waning Crescent, 1% of the Moon is Illuminated
Jun 7
Waning Crescent
Jun 8
New
Jun 16
First Quarter
Jun 23
Full
Jun 29
Last Quarter

Hourly Weather History & Observations

Time (PDT) Temp. Dew Point Humidity Pressure Visibility Wind Dir Wind Speed Gust Speed Precip Events Conditions
12:53 AM 61.0 °F 43.0 °F 52% 30.06 in 10.0 mi Calm Calm - N/A   Scattered Clouds
1:53 AM 59.0 °F 45.0 °F 60% 30.07 in 10.0 mi Calm Calm - N/A   Clear
2:53 AM 57.9 °F 44.1 °F 60% 30.08 in 10.0 mi WNW 5.8 mph - N/A   Clear
3:53 AM 57.0 °F 45.0 °F 64% 30.10 in 10.0 mi NW 3.5 mph - N/A   Partly Cloudy
4:53 AM 55.9 °F 46.0 °F 69% 30.10 in 10.0 mi Calm Calm - N/A   Scattered Clouds
5:53 AM 55.0 °F 46.0 °F 72% 30.11 in 10.0 mi Calm Calm - N/A   Partly Cloudy
6:53 AM 57.9 °F 46.0 °F 65% 30.13 in 10.0 mi Calm Calm - N/A   Partly Cloudy
7:53 AM 60.1 °F 44.1 °F 55% 30.13 in 10.0 mi Calm Calm - N/A   Partly Cloudy
8:53 AM 63.0 °F 44.1 °F 50% 30.14 in 10.0 mi Calm Calm - N/A   Partly Cloudy
9:53 AM 66.0 °F 42.1 °F 42% 30.12 in 10.0 mi Calm Calm - N/A   Scattered Clouds
10:53 AM 68.0 °F 42.1 °F 39% 30.12 in 10.0 mi North 3.5 mph - N/A   Mostly Cloudy
11:53 AM 71.1 °F 39.9 °F 32% 30.12 in 10.0 mi North 3.5 mph - N/A   Mostly Cloudy
12:53 PM 73.0 °F 41.0 °F 31% 30.11 in 10.0 mi NW 6.9 mph - N/A   Mostly Cloudy
1:53 PM 73.9 °F 45.0 °F 35% 30.10 in 10.0 mi NW 4.6 mph - N/A   Mostly Cloudy
2:53 PM 77.0 °F 45.0 °F 32% 30.09 in 10.0 mi WNW 5.8 mph - N/A   Mostly Cloudy
3:53 PM 78.1 °F 48.9 °F 36% 30.08 in 10.0 mi NW 8.1 mph - N/A   Scattered Clouds
4:53 PM 77.0 °F 52.0 °F 42% 30.09 in 10.0 mi North 6.9 mph - N/A   Scattered Clouds
5:53 PM 75.0 °F 55.9 °F 51% 30.08 in 10.0 mi NNW 10.4 mph - N/A   Partly Cloudy
6:53 PM 72.0 °F 55.0 °F 55% 30.09 in 10.0 mi NNW 9.2 mph - N/A   Partly Cloudy
7:53 PM 68.0 °F 54.0 °F 61% 30.10 in 10.0 mi North 11.5 mph 18.4 mph N/A   Partly Cloudy
8:53 PM 64.0 °F 53.1 °F 67% 30.12 in 10.0 mi NNW 10.4 mph - N/A   Partly Cloudy
9:53 PM 62.1 °F 52.0 °F 70% 30.14 in 10.0 mi NNW 8.1 mph - N/A   Partly Cloudy
10:53 PM 60.1 °F 51.1 °F 72% 30.15 in 10.0 mi NW 8.1 mph - N/A   Clear
11:53 PM 57.9 °F 50.0 °F 75% 30.17 in 10.0 mi NNW 5.8 mph - N/A   Clear